Temperature
16 16 15 15 15 16 16 16 16 16 16 16 16 16 16 16 16 16 16 15 15 15 15 15 15 15 15 15 15 15 15 15 15 15 15 15 15 15 15 15 15 14 14
17 16 15 15 15 15 16 16 16 16 16 16 16 16 16 16 16 15 15 15 15 15 15 15 15 15 15 15 15 15 15 15 15 15 15 15 15 15 15 15 15 14 14
16 16 15 15 15 15 15 16 16 16 16 16 16 16 15 15 15 15 15 15 15 15 15 15 15 15 15 15 15 15 15 15 15 15 15 15 15 15 15 15 14 14 14
16 16 15 15 15 15 15 15 15 15 16 15 15 15 15 15 15 15 15 15 15 15 15 15 15 15 15 15 15 15 15 15 15 15 15 15 15 14 14 14 14 14 14
15 15 15 15 15 15 15 15 15 15 15 15 15 15 15 15 15 15 15 15 15 15 15 15 15 15 15 15 15 15 15 15 15 15 15 15 14 14 14 14 14 14 14
15 15 15 15 15 15 15 15 15 15 15 15 15 15 15 15 15 15 15 15 15 15 15 15 15 15 15 14 15 15 15 14 14 14 14 14 14 14 14 14 14 14 14
15 14 14 14 14 15 15 15 15 15 15 15 15 15 15 15 15 15 15 15 15 15 15 15 15 15 14 14 14 14 14 14 14 14 14 14 14 14 14 14 14 14 14
14 14 14 14 14 14 14 14 15 15 15 14 15 15 15 15 15 15 15 15 15 15 15 15 14 14 14 14 14 14 14 14 14 14 14 14 14 14 14 14 14 13 13
14 14 14 14 14 14 14 14 14 14 14 14 14 14 15 15 15 15 15 15 14 14 14 14 14 14 14 14 14 14 14 14 14 14 14 14 14 14 13 13 13 13 13
13 13 14 13 13 14 14 14 14 14 14 14 14 14 14 14 14 15 14 14 14 14 14 14 14 14 14 14 14 14 14 13 13 13 13 13 13 13 13 13 13 13 13
13 13 13 13 13 13 13 13 13 13 14 14 14 14 14 14 14 14 14 14 14 14 14 14 14 14 14 13 13 13 13 13 13 13 13 13 13 13 13 13 13 13 13
13 13 13 13 13 13 13 13 13 13 13 13 14 14 14 14 14 14 14 14 14 14 14 14 13 13 13 13 13 13 13 13 13 13 13 13 13 13 13 12 12 12 12
13 13 13 13 13 13 13 13 13 13 13 13 13 13 13 14 14 14 13 13 13 13 13 13 13 13 13 13 13 13 12 13 13 13 12 12 12 12 12 12 12 12 12
12 12 12 12 13 13 13 13 13 12 12 13 13 13 13 13 13 13 13 13 13 13 13 13 13 13 12 12 12 12 12 12 12 12 12 12 12 12 12 12 12 12 12
12 12 12 12 12 12 12 12 12 12 12 12 12 13 13 13 13 13 13 13 13 13 13 13 13 12 12 12 12 12 12 12 12 12 12 12 12 12 12 11 11 11 11
12 12 12 12 12 12 12 12 12 12 12 12 12 12 12 12 13 13 13 13 13 13 12 12 12 12 12 12 12 12 12 11 12 12 12 12 12 12 11 11 11 11 11
12 12 12 12 12 12 12 12 12 12 12 12 12 12 12 12 12 12 12 12 12 12 12 12 12 12 12 12 12 11 11 11 11 11 11 11 11 11 11 11 11 11 11
12 12 12 12 12 11 12 11 11 11 11 11 11 11 11 12 12 12 12 12 12 12 12 12 12 12 11 11 11 11 11 11 11 11 11 11 11 11 11 11 11 11 10
12 12 12 11 11 11 11 11 11 11 11 11 11 11 11 11 11 11 11 12 11 11 11 11 11 11 11 11 11 11 11 11 11 11 11 10 10 10 10 10 10 10 10
11 11 11 11 11 11 11 11 11 11 11 11 11 11 11 11 11 11 11 11 11 11 11 11 11 11 11 11 11 10 10 10 10 10 10 10 10 10 10 10 10 10 10
11 11 11 11 11 11 11 11 11 11 11 10 10 10 11 11 11 11 11 11 11 11 11 11 11 10 10 10 10 10 9 9 9 9 10 10 10 9 9 9 9 9 9
11 11 11 11 11 11 11 11 11 11 10 10 10 10 10 10 10 10 10 10 10 10 10 10 10 10 10 10 10 10 9 9 9 9 9 9 9 9 9 9 9 9 9
11 11 11 11 11 11 11 10 10 10 10 10 10 10 10 10 10 10 10 10 10 10 10 10 10 10 10 10 10 10 9 8 8 8 9 9 9 9 9 9 9 9 9
11 11 11 11 11 10 10 10 10 10 10 10 10 10 10 10 10 10 10 9 10 10 10 10 10 10 10 10 9 9 9 9 8 8 8 8 8 8 8 8 8 8 8
11 11 11 10 10 10 10 10 10 10 10 10 10 9 10 10 9 9 9 9 9 9 9 9 9 9 9 9 9 9 9 9 8 8 7 8 8 8 8 8 8 8 8
10 10 10 10 10 10 10 10 10 10 10 9 9 9 9 9 9 9 9 9 9 9 9 9 9 9 9 9 9 9 8 8 8 8 7 7 7 7 7 7 7 7 7
Wind_Speed
3 5 10 10 10 10 11 11 11 12 12 12 12 12 12 12 12 12 13 13 12 12 12 12 13 13 14 14 14 14 14 15 16 16 16 16 16 16 16 15 15 14 16
6 8 11 11 11 11 10 11 10 11 11 11 11 11 11 12 11 12 12 12 12 12 12 12 13 14 14 14 14 15 15 16 16 16 16 15 15 15 15 14 13 13 15
6 9 11 12 11 11 10 10 10 10 10 11 11 11 11 11 11 11 11 12 12 12 12 12 13 13 13 13 14 14 15 15 15 15 14 13 13 14 14 14 14 14 14
7 9 11 12 12 11 10 10 10 10 10 10 10 11 10 10 11 11 11 11 11 11 11 12 13 13 13 13 14 14 14 14 14 14 12 11 11 13 13 13 13 14 14
6 8 10 12 12 12 11 10 9 9 10 10 10 10 10 10 10 11 11 11 11 12 12 12 12 12 12 13 13 14 14 14 14 13 12 11 10 12 13 13 13 13 14
5 7 9 11 12 12 11 10 10 9 9 10 10 10 10 10 10 10 11 11 11 11 12 12 12 12 12 13 13 13 13 13 13 12 11 10 10 12 12 12 13 13 13
5 5 8 11 12 12 11 10 10 9 9 10 10 10 10 10 10 10 10 11 11 11 11 12 12 12 12 12 13 12 13 13 13 11 10 10 10 11 11 11 11 12 12
6 5 7 10 11 11 11 10 10 9 9 10 10 10 10 10 10 10 11 11 11 11 11 12 12 12 12 12 12 12 12 12 11 10 10 9 10 10 10 11 10 10 11
5 5 5 8 9 10 11 10 9 9 9 9 10 10 10 10 9 10 10 11 11 12 11 12 12 12 12 12 12 12 12 12 11 9 8 8 9 10 9 9 10 10 10
3 4 4 6 8 8 9 10 9 9 9 9 9 9 9 10 9 9 10 11 11 12 12 12 12 12 12 12 12 12 12 11 10 9 8 7 8 8 8 9 9 9 9
4 3 4 4 6 8 8 9 9 8 8 8 8 9 9 8 8 7 9 10 12 12 12 12 12 12 12 12 12 12 11 10 9 7 7 7 8 8 8 8 8 8 8
6 5 4 5 6 7 7 7 7 7 8 8 8 9 8 8 7 7 8 10 11 12 12 12 13 12 12 11 11 11 9 9 8 6 5 7 7 7 8 8 8 7 7
7 6 5 6 6 6 6 7 6 7 7 8 9 8 8 8 7 6 7 7 9 10 10 11 11 10 10 10 9 9 9 8 7 6 5 6 7 7 7 7 7 7 7
7 7 6 6 6 6 6 6 7 6 6 6 8 9 8 6 5 5 5 6 7 8 8 8 8 9 10 10 10 9 8 8 7 7 6 7 6 6 7 6 6 6 6
8 8 7 6 7 6 6 6 6 6 6 7 8 8 9 6 5 5 5 6 6 8 8 7 8 8 8 8 9 9 8 8 8 8 7 8 8 7 7 7 6 6 6
9 8 7 7 7 7 6 5 6 7 8 8 8 8 9 8 6 5 5 5 6 7 8 8 8 7 6 7 7 8 8 8 8 9 9 9 9 8 6 6 6 7 6
9 8 8 8 7 8 7 6 6 7 9 7 7 9 10 9 8 6 5 4 6 8 9 8 8 8 6 6 6 7 7 7 8 8 9 9 9 9 8 7 6 6 6
8 8 8 8 8 8 7 6 6 7 7 7 8 9 10 10 9 7 5 4 6 8 8 7 5 5 5 5 4 4 5 6 7 7 8 8 8 8 8 8 7 6 5
9 9 8 8 8 8 7 6 6 6 6 7 8 8 8 9 9 8 6 6 7 6 6 6 5 5 5 5 5 4 4 5 5 7 7 7 7 7 7 7 8 7 5
8 8 8 8 7 7 5 5 4 4 4 5 7 7 9 9 9 8 6 7 8 5 4 5 6 5 5 5 6 5 4 4 5 5 5 6 6 6 7 7 7 7 6
7 8 8 8 8 7 5 5 5 4 4 4 5 8 9 10 10 8 6 7 7 5 5 7 7 7 5 4 5 4 4 4 4 4 4 5 6 6 6 6 5 5 5
9 9 9 9 9 8 6 4 3 4 3 4 5 6 9 10 10 9 8 7 7 5 6 7 7 5 3 2 3 4 2 2 3 3 3 3 4 5 5 5 5 5 4
8 9 9 9 9 8 7 5 4 3 2 3 4 4 6 9 10 10 9 8 8 6 6 7 7 7 5 2 2 3 3 2 0 2 2 2 2 3 3 4 4 4 4
8 8 9 9 9 8 9 8 8 6 5 5 5 5 6 9 10 10 10 9 8 7 7 6 5 5 7 4 2 2 2 3 2 0 1 2 2 2 2 3 3 4 4
8 8 7 8 8 8 8 9 9 6 4 4 5 7 6 6 8 10 10 9 8 6 6 7 6 5 4 4 3 2 3 3 2 2 1 1 2 2 2 2 2 2 3
6 7 7 8 7 8 8 8 9 8 7 7 7 7 6 5 5 7 9 8 8 7 7 7 6 6 4 4 3 3 3 2 2 2 2 1 1 2 2 1 1 2 2
Wind_Direction
184 182 165 153 147 139 134 130 125 123 121 119 116 116 117 119 120 118 119 118 118 115 114 113 111 110 107 103 100 99 99 96 93 91 90 90 89 89 87 85 83 81 82
163 168 162 156 150 143 138 133 128 128 127 125 123 120 118 121 122 121 121 120 119 118 114 113 113 112 108 105 103 102 101 99 95 92 89 89 90 91 90 87 87 87 86
149 160 158 155 151 147 140 137 134 132 133 132 129 127 123 122 123 123 122 121 120 119 115 113 111 110 107 106 105 105 104 103 100 95 90 89 93 94 93 89 86 89 88
148 154 155 156 153 149 144 140 139 139 138 137 136 133 130 126 126 125 124 122 123 121 118 115 112 109 108 107 107 107 107 106 104 98 91 90 94 97 95 92 88 89 90
142 150 156 156 155 152 149 145 142 142 142 141 141 138 136 134 129 128 126 123 123 123 121 117 114 110 109 110 110 109 108 107 106 100 94 92 96 98 97 93 91 91 91
136 147 157 158 158 155 153 152 150 147 145 144 143 144 141 138 134 131 131 126 122 123 122 120 115 112 112 111 111 110 109 107 106 100 96 94 97 101 99 97 95 94 93
142 146 158 162 162 157 155 156 155 154 149 148 147 148 147 143 139 137 135 131 126 124 122 122 118 115 115 114 111 111 110 109 106 100 97 97 100 101 102 101 99 97 96
147 143 157 163 162 161 159 158 157 157 154 154 152 149 150 146 143 140 136 135 130 127 123 121 121 119 118 116 112 110 111 110 108 101 98 100 103 102 100 102 102 100 100
138 138 147 156 158 159 161 161 159 155 153 154 153 150 142 142 142 143 141 138 136 132 126 121 119 119 118 116 113 110 110 109 106 103 101 101 103 100 99 101 103 101 101
139 144 143 144 153 156 158 160 159 156 154 150 147 142 141 138 135 140 143 138 138 134 130 126 120 115 117 116 114 112 110 107 103 102 102 104 106 104 100 99 103 104 102
163 166 156 144 150 154 154 156 154 152 149 143 139 137 131 124 125 126 136 136 136 134 131 127 122 116 110 108 110 111 109 104 103 98 100 107 109 106 101 100 101 102 103
188 188 174 164 157 154 155 146 143 142 140 137 136 134 126 122 124 126 126 131 133 131 129 125 120 114 107 100 99 106 105 104 99 92 99 112 110 110 107 101 99 101 100
190 188 185 176 162 157 150 146 140 140 138 137 138 137 130 121 117 116 115 121 125 124 119 119 113 108 105 102 98 98 104 104 97 88 93 112 109 108 108 104 102 100 99
190 196 191 180 168 161 157 152 148 143 142 142 146 146 136 123 118 115 114 119 120 122 116 113 109 107 104 104 103 99 97 102 99 91 87 101 112 114 109 108 105 105 104
197 198 193 185 178 165 159 160 154 153 155 154 153 155 148 140 141 130 122 118 121 123 119 114 110 107 103 100 102 101 94 95 97 95 88 88 96 101 106 106 103 107 106
200 199 192 191 182 169 168 168 162 159 158 157 158 161 156 148 141 138 136 127 124 128 127 121 118 114 107 102 96 96 95 92 91 91 86 80 79 81 90 98 98 93 93
201 196 191 190 181 174 171 169 163 162 159 160 162 163 159 154 144 141 139 140 130 132 126 117 110 107 106 100 93 90 91 88 89 89 86 80 73 66 70 81 87 82 78
196 194 191 186 178 176 170 165 161 161 159 160 163 163 162 159 150 142 141 144 133 126 127 128 127 121 110 103 92 83 83 84 81 86 85 81 75 68 61 63 69 71 70
195 192 189 181 176 174 165 156 157 153 157 159 159 161 161 160 156 149 146 141 135 126 129 132 128 128 118 105 95 78 69 72 73 79 78 77 74 71 66 60 59 57 60
188 190 186 178 172 163 154 144 146 150 157 158 160 164 163 159 158 152 144 142 137 132 132 132 126 114 117 117 102 81 64 60 65 67 70 72 68 63 62 62 59 51 48
178 181 184 175 171 163 165 166 166 175 176 177 170 168 166 160 155 152 149 143 139 139 145 136 127 117 107 113 101 80 51 53 57 53 60 65 59 56 57 54 53 53 44
184 182 185 183 177 177 177 174 163 161 174 176 166 164 165 159 155 155 150 149 140 135 137 134 130 129 120 110 117 117 85 22 18 31 43 62 54 51 46 39 39 39 37
188 187 190 189 182 179 169 149 129 121 125 152 170 174 166 160 157 153 152 148 143 144 153 148 142 139 143 119 105 133 145 188 248 358 18 43 46 44 30 25 22 16 20
192 188 187 186 183 178 169 166 164 174 183 187 176 170 158 155 155 155 152 152 148 148 155 155 144 142 145 149 114 73 111 138 147 179 329 11 26 16 4 12 5 4 16
182 180 182 175 176 174 172 173 175 175 172 155 155 156 156 151 153 154 151 153 151 151 156 153 147 139 143 148 144 128 94 80 100 152 211 295 345 327 326 340 340 350 10
173 172 172 169 171 170 170 175 179 171 157 156 163 162 159 154 153 152 151 153 151 153 159 158 151 146 145 137 136 135 140 140 154 151 179 207 261 288 306 323 312 316 335
Height
1509 1512 1514 1517 1519 1521 1522 1524 1525 1526 1527 1529 1530 1531 1532 1534 1535 1536 1537 1538 1539 1540 1541 1542 1543 1544 1545 1546 1547 1548 1549 1549 1550 1551 1551 1552 1552 1553 1553 1554 1555 1555 1556
1508 1511 1514 1516 1518 1520 1522 1523 1525 1526 1527 1528 1530 1531 1532 1534 1535 1536 1537 1538 1540 1541 1542 1543 1544 1545 1546 1547 1548 1549 1550 1550 1551 1552 1552 1553 1554 1554 1555 1555 1556 1557 1557
1508 1510 1513 1515 1518 1520 1521 1523 1524 1526 1527 1528 1529 1531 1532 1533 1535 1536 1537 1539 1540 1541 1542 1544 1544 1546 1547 1548 1549 1550 1551 1551 1552 1553 1554 1554 1555 1556 1556 1557 1557 1558 1558
1508 1510 1512 1515 1517 1519 1521 1522 1524 1525 1526 1528 1529 1531 1532 1533 1534 1536 1537 1539 1540 1541 1542 1544 1545 1546 1547 1548 1550 1551 1551 1552 1553 1554 1555 1556 1556 1557 1558 1558 1559 1559 1560
1507 1510 1512 1514 1516 1518 1520 1522 1523 1524 1526 1527 1529 1530 1531 1533 1534 1535 1537 1538 1540 1541 1543 1544 1545 1546 1548 1549 1550 1551 1552 1553 1554 1555 1556 1557 1558 1558 1559 1559 1560 1560 1561
1506 1509 1511 1513 1516 1517 1519 1521 1522 1524 1525 1527 1528 1529 1531 1532 1534 1535 1537 1538 1540 1541 1543 1544 1546 1547 1548 1549 1551 1552 1553 1554 1555 1556 1557 1558 1559 1560 1560 1561 1561 1561 1562
1505 1508 1510 1512 1514 1516 1518 1520 1521 1523 1524 1526 1527 1529 1530 1532 1533 1535 1536 1538 1540 1541 1543 1544 1546 1547 1549 1550 1551 1552 1554 1555 1556 1557 1558 1559 1560 1561 1561 1562 1562 1563 1563
1505 1507 1509 1511 1513 1515 1517 1518 1520 1521 1523 1525 1526 1528 1530 1531 1533 1534 1536 1538 1539 1541 1543 1544 1546 1547 1549 1550 1551 1553 1554 1555 1557 1558 1559 1560 1561 1561 1562 1563 1563 1564 1564
1504 1506 1508 1509 1511 1513 1515 1517 1518 1520 1522 1523 1525 1527 1529 1530 1532 1534 1535 1537 1539 1541 1542 1544 1546 1547 1549 1550 1552 1553 1554 1556 1557 1558 1559 1560 1561 1562 1562 1563 1564 1564 1565
1503 1505 1506 1507 1509 1510 1512 1515 1516 1518 1520 1522 1524 1526 1528 1529 1531 1533 1535 1537 1538 1540 1542 1543 1545 1547 1548 1550 1552 1553 1555 1556 1557 1558 1559 1560 1561 1562 1563 1563 1564 1564 1565
1501 1503 1504 1505 1507 1508 1510 1512 1514 1516 1518 1520 1522 1524 1526 1528 1530 1532 1534 1536 1538 1540 1541 1543 1545 1546 1548 1550 1552 1553 1555 1556 1557 1558 1559 1560 1561 1562 1563 1563 1564 1564 1565
1498 1500 1502 1503 1504 1506 1507 1510 1512 1514 1516 1518 1520 1523 1525 1527 1529 1531 1533 1535 1537 1539 1541 1543 1544 1546 1548 1549 1551 1553 1554 1556 1557 1558 1559 1560 1561 1562 1562 1563 1564 1564 1565
1495 1497 1499 1501 1502 1504 1505 1507 1509 1512 1514 1516 1518 1521 1523 1525 1527 1529 1531 1534 1536 1538 1540 1542 1543 1545 1547 1549 1551 1552 1554 1555 1556 1558 1559 1560 1561 1561 1562 1563 1563 1564 1564
1493 1494 1496 1498 1499 1501 1503 1504 1507 1509 1511 1514 1516 1519 1521 1523 1525 1527 1530 1532 1534 1536 1539 1541 1542 1544 1546 1548 1550 1552 1553 1554 1556 1557 1558 1559 1560 1561 1561 1562 1562 1563 1564
1489 1491 1493 1495 1497 1499 1501 1502 1504 1507 1509 1512 1514 1517 1519 1521 1523 1526 1528 1530 1533 1535 1537 1539 1541 1543 1545 1547 1549 1551 1552 1554 1555 1556 1557 1558 1559 1560 1561 1561 1562 1563 1563
1486 1488 1490 1492 1494 1496 1498 1500 1502 1504 1507 1509 1512 1514 1517 1519 1522 1524 1526 1528 1531 1533 1535 1538 1540 1542 1544 1546 1548 1550 1551 1553 1554 1555 1556 1557 1558 1559 1560 1560 1561 1562 1562
1483 1485 1487 1489 1491 1493 1495 1497 1499 1502 1504 1506 1509 1512 1514 1517 1519 1521 1524 1526 1528 1531 1533 1536 1538 1541 1543 1545 1547 1549 1551 1552 1553 1554 1555 1556 1557 1558 1559 1559 1560 1561 1561
1480 1482 1484 1486 1488 1490 1492 1494 1496 1499 1501 1504 1507 1510 1512 1515 1517 1519 1522 1524 1526 1529 1531 1533 1536 1539 1541 1543 1545 1548 1550 1551 1552 1553 1554 1555 1556 1557 1558 1558 1559 1560 1560
1476 1478 1480 1482 1484 1487 1489 1491 1494 1496 1499 1501 1504 1507 1510 1513 1515 1517 1520 1523 1525 1527 1529 1531 1534 1537 1539 1541 1543 1546 1548 1550 1551 1552 1553 1554 1555 1556 1557 1557 1558 1558 1559
1472 1474 1477 1479 1481 1484 1486 1487 1490 1493 1496 1498 1501 1504 1507 1510 1513 1515 1518 1520 1522 1525 1526 1529 1532 1535 1537 1540 1542 1544 1546 1548 1550 1551 1551 1553 1554 1554 1555 1556 1556 1557 1557
1468 1470 1473 1475 1478 1480 1482 1484 1486 1489 1492 1495 1497 1501 1504 1507 1510 1513 1515 1518 1520 1522 1524 1527 1529 1532 1535 1538 1540 1542 1545 1547 1548 1549 1550 1551 1552 1553 1553 1554 1555 1555 1555
1463 1466 1469 1471 1474 1476 1478 1481 1483 1486 1489 1491 1494 1497 1500 1504 1507 1510 1512 1515 1517 1520 1522 1524 1527 1530 1533 1536 1538 1540 1543 1546 1546 1547 1548 1549 1550 1551 1551 1552 1552 1553 1553
1458 1461 1464 1467 1470 1473 1475 1478 1480 1483 1486 1488 1490 1494 1497 1500 1504 1507 1510 1512 1515 1518 1520 1522 1524 1527 1530 1534 1537 1539 1540 1541 1544 1545 1546 1547 1547 1548 1549 1549 1550 1550 1551
1454 1457 1460 1463 1466 1469 1472 1474 1476 1479 1481 1484 1487 1490 1494 1497 1500 1504 1506 1510 1512 1515 1518 1520 1523 1526 1528 1531 1534 1536 1538 1539 1541 1542 1544 1544 1545 1546 1546 1547 1547 1547 1548
1450 1453 1456 1459 1462 1465 1468 1471 1473 1476 1479 1481 1484 1487 1490 1494 1497 1500 1503 1507 1509 1512 1515 1518 1521 1524 1526 1529 1531 1533 1535 1536 1538 1539 1539 1541 1542 1543 1543 1544 1544 1545 1545
1446 1449 1452 1455 1458 1462 1465 1468 1470 1472 1475 1478 1480 1483 1487 1490 1494 1497 1501 1504 1507 1510 1513 1516 1519 1521 1524 1527 1529 1531 1532 1534 1535 1536 1536 1537 1538 1540 1540 1541 1541 1542 1542